Location: Bishop�s Knoyle
(51.0728°N, 2.1714°W)
Time: 03:22:43
(UTC+00:00)

ATLAS CENTAUR R/B - Pass Details

Date: 17 January 2021
Orbit: 475 x 670 km, 64.7° (Epoch: 06 March)

Event Time Altitude Azimuth Distance (km) Brightness Sun altitude
Rises 17:15:23 0° 302° (WNW) 2,621 5.3 -6.5°
Reaches altitude 10° 17:18:42 10° 271° (W) 1,770 5.1 -6.9°
Maximum altitude 17:20:16 12° 247° (WSW) 1,657 5.5 -7.2°
Drops below altitude 10° 17:21:52 10° 224° (SW) 1,809 5.2 -7.4°
Sets 17:25:21 0° 193° (SSW) 2,750 5.5 -7.9°
